Temp
-12 -12 -12 -13 -13 -13 -14 -14 -15 -15 -14 -15 -15 -14 -14 -14 -14 -13 -13 -12 -12 -12 -12 -11 -11 -11 -11 -11 -11 -10 -10 -11 -11 -11 -12 -11 -10 -10 -10 -10 -10 -9 -10 -9 -8
-12 -12 -12 -12 -13 -13 -14 -14 -14 -14 -14 -14 -14 -14 -14 -14 -14 -14 -13 -13 -13 -12 -12 -12 -12 -12 -11 -11 -11 -11 -11 -11 -11 -11 -12 -12 -11 -10 -10 -10 -10 -10 -10 -10 -8
-12 -12 -12 -13 -13 -13 -14 -14 -14 -14 -14 -14 -14 -14 -13 -13 -13 -13 -13 -13 -13 -12 -12 -12 -12 -12 -12 -12 -11 -11 -11 -11 -11 -11 -11 -11 -11 -11 -10 -10 -11 -10 -10 -11 -10
-12 -12 -12 -13 -13 -13 -13 -13 -14 -14 -14 -14 -14 -14 -13 -13 -13 -13 -13 -13 -12 -12 -12 -12 -12 -12 -12 -12 -12 -12 -12 -11 -11 -11 -11 -12 -11 -12 -12 -11 -11 -11 -11 -10 -10
-12 -12 -12 -13 -13 -13 -13 -13 -13 -13 -13 -13 -14 -14 -13 -13 -13 -13 -13 -13 -13 -13 -13 -12 -12 -12 -12 -12 -12 -12 -12 -12 -12 -12 -12 -12 -11 -12 -12 -12 -12 -12 -12 -12 -11
-11 -11 -12 -12 -12 -12 -13 -13 -13 -13 -13 -13 -13 -13 -13 -13 -13 -13 -13 -13 -13 -12 -12 -12 -12 -12 -12 -12 -12 -12 -12 -12 -12 -12 -12 -12 -12 -11 -11 -13 -13 -13 -13 -13 -13
-11 -11 -11 -11 -11 -12 -12 -12 -12 -12 -12 -13 -13 -13 -13 -13 -13 -13 -13 -13 -12 -12 -12 -12 -12 -12 -12 -12 -12 -12 -12 -12 -12 -12 -12 -11 -11 -12 -12 -13 -12 -12 -12 -14 -14
-11 -11 -11 -11 -11 -12 -12 -12 -12 -12 -12 -13 -13 -13 -13 -13 -13 -13 -13 -13 -13 -13 -13 -13 -12 -12 -12 -12 -12 -12 -12 -11 -12 -12 -12 -11 -11 -11 -12 -12 -12 -12 -12 -12 -13
-11 -11 -11 -12 -12 -12 -12 -12 -12 -12 -13 -13 -13 -13 -13 -13 -13 -13 -13 -13 -12 -12 -12 -12 -12 -12 -12 -12 -12 -11 -11 -11 -11 -12 -12 -13 -11 -12 -12 -12 -12 -12 -12 -12 -12
-11 -11 -12 -12 -12 -12 -12 -12 -13 -13 -13 -13 -13 -13 -13 -13 -13 -13 -13 -13 -13 -12 -12 -12 -12 -12 -12 -12 -11 -11 -11 -11 -11 -13 -14 -14 -12 -12 -13 -13 -13 -13 -13 -12 -12
-12 -12 -12 -12 -12 -13 -13 -12 -12 -13 -13 -13 -13 -13 -13 -13 -14 -13 -13 -13 -12 -12 -12 -12 -12 -12 -12 -12 -12 -11 -11 -11 -12 -15 -18 -19 -16 -16 -16 -17 -16 -15 -15 -14 -13
-12 -12 -12 -12 -12 -12 -12 -12 -12 -12 -13 -13 -13 -13 -13 -13 -13 -13 -13 -13 -13 -13 -13 -13 -12 -12 -12 -12 -12 -12 -13 -14 -17 -19 -20 -20 -20 -19 -19 -19 -19 -18 -18 -17 -15
-12 -12 -12 -12 -12 -12 -12 -12 -12 -12 -13 -13 -13 -13 -13 -13 -13 -13 -14 -13 -13 -13 -13 -13 -13 -13 -13 -13 -13 -15 -17 -17 -19 -20 -21 -21 -21 -20 -20 -21 -21 -20 -19 -18 -17
-12 -12 -12 -12 -12 -12 -13 -12 -12 -12 -13 -13 -13 -13 -13 -13 -13 -14 -14 -14 -13 -14 -14 -13 -13 -14 -14 -14 -15 -17 -18 -20 -21 -22 -22 -22 -21 -21 -20 -22 -22 -21 -21 -20 -19
-12 -12 -13 -13 -13 -13 -13 -13 -13 -13 -13 -13 -13 -13 -13 -13 -13 -13 -14 -14 -14 -14 -14 -14 -14 -14 -14 -15 -16 -19 -21 -21 -23 -24 -24 -24 -23 -22 -22 -22 -21 -22 -21 -20 -20
-13 -13 -13 -13 -13 -13 -13 -13 -13 -13 -13 -13 -13 -13 -14 -14 -14 -14 -14 -14 -15 -15 -15 -15 -15 -15 -15 -17 -18 -20 -21 -23 -24 -25 -24 -24 -24 -24 -23 -23 -22 -23 -21 -21 -20
-13 -13 -13 -13 -13 -14 -14 -14 -13 -13 -14 -14 -14 -14 -14 -14 -14 -14 -14 -15 -15 -16 -16 -16 -15 -15 -15 -18 -21 -21 -22 -23 -24 -25 -24 -25 -24 -24 -23 -24 -23 -23 -23 -21 -21
-13 -13 -13 -14 -14 -14 -14 -14 -14 -14 -14 -14 -14 -14 -14 -14 -14 -15 -15 -15 -16 -16 -16 -17 -17 -16 -17 -18 -20 -22 -23 -24 -24 -24 -24 -24 -25 -24 -24 -23 -23 -23 -24 -23 -22
-14 -14 -14 -14 -14 -14 -14 -14 -14 -14 -14 -14 -14 -14 -14 -15 -15 -15 -15 -15 -16 -16 -17 -17 -18 -19 -19 -20 -20 -22 -24 -24 -24 -25 -24 -24 -25 -24 -24 -23 -23 -23 -23 -23 -22
-14 -14 -14 -14 -14 -14 -14 -14 -14 -14 -15 -15 -15 -15 -15 -15 -15 -15 -15 -16 -16 -16 -17 -17 -18 -19 -19 -21 -22 -22 -23 -25 -25 -25 -24 -24 -25 -25 -25 -25 -24 -24 -24 -24 -23
-14 -14 -14 -14 -15 -15 -15 -15 -15 -15 -15 -15 -15 -15 -16 -16 -16 -16 -16 -16 -16 -17 -17 -18 -18 -20 -20 -20 -22 -23 -23 -24 -25 -26 -25 -24 -24 -25 -24 -24 -24 -24 -24 -24 -24
-15 -15 -15 -15 -15 -15 -15 -15 -15 -15 -16 -16 -16 -16 -16 -16 -17 -17 -17 -17 -17 -17 -18 -18 -19 -20 -20 -21 -21 -22 -23 -24 -25 -26 -25 -25 -23 -25 -25 -25 -24 -24 -24 -24 -24
-15 -15 -15 -15 -16 -16 -16 -16 -16 -16 -16 -16 -16 -16 -17 -17 -17 -18 -18 -17 -18 -18 -18 -19 -19 -19 -21 -21 -22 -23 -24 -24 -25 -26 -26 -26 -24 -25 -26 -26 -25 -25 -25 -24 -24
-16 -16 -16 -16 -16 -16 -16 -16 -16 -16 -17 -17 -17 -17 -17 -17 -18 -18 -18 -18 -18 -18 -18 -19 -20 -20 -20 -22 -23 -23 -24 -25 -27 -27 -27 -26 -26 -25 -26 -26 -25 -25 -24 -24 -24
-16 -17 -17 -17 -17 -17 -17 -17 -16 -17 -17 -17 -17 -17 -18 -18 -18 -18 -19 -19 -19 -19 -19 -19 -20 -21 -21 -22 -23 -23 -24 -26 -27 -28 -27 -27 -27 -25 -25 -25 -25 -25 -25 -25 -25
-17 -17 -17 -17 -17 -17 -17 -17 -17 -17 -17 -18 -18 -18 -18 -18 -18 -19 -19 -19 -19 -20 -20 -20 -20 -22 -21 -22 -23 -24 -25 -26 -27 -27 -27 -27 -27 -26 -26 -25 -25 -25 -26 -25 -25
-17 -18 -18 -17 -17 -18 -18 -18 -17 -17 -18 -18 -18 -18 -18 -19 -18 -19 -19 -19 -20 -20 -20 -20 -20 -21 -22 -23 -24 -24 -25 -26 -27 -27 -27 -27 -27 -27 -27 -26 -26 -26 -26 -25 -26
Height
5792 5795 5792 5791 5792 5794 5792 5794 5794 5796 5797 5798 5802 5804 5806 5807 5809 5810 5813 5815 5815 5816 5818 5820 5822 5825 5826 5828 5830 5832 5835 5838 5841 5844 5847 5845 5845 5845 5845 5848 5854 5858 5860 5860 5867
5792 5793 5792 5792 5792 5794 5794 5795 5796 5795 5797 5799 5802 5804 5806 5806 5808 5809 5811 5812 5813 5814 5816 5818 5820 5822 5822 5824 5825 5827 5829 5831 5834 5837 5840 5841 5842 5843 5845 5843 5847 5850 5852 5855 5858
5791 5794 5792 5795 5795 5794 5795 5796 5796 5795 5796 5797 5800 5804 5804 5804 5807 5807 5809 5810 5811 5813 5814 5815 5816 5818 5820 5820 5821 5822 5824 5826 5827 5827 5832 5836 5835 5839 5842 5841 5842 5843 5846 5847 5854
5789 5792 5791 5793 5795 5796 5795 5795 5795 5794 5794 5796 5798 5800 5802 5802 5804 5804 5805 5806 5807 5809 5810 5811 5812 5813 5814 5815 5817 5819 5819 5820 5823 5822 5824 5829 5834 5835 5837 5839 5836 5839 5838 5842 5845
5788 5789 5790 5791 5792 5793 5794 5795 5795 5794 5794 5794 5795 5797 5798 5799 5801 5801 5801 5802 5803 5803 5804 5805 5807 5808 5809 5810 5811 5812 5813 5813 5814 5816 5817 5818 5825 5828 5832 5830 5834 5835 5833 5835 5836
5786 5788 5788 5789 5791 5792 5791 5791 5792 5791 5792 5792 5793 5794 5796 5798 5797 5798 5798 5798 5798 5799 5800 5800 5801 5802 5803 5803 5805 5804 5804 5803 5802 5803 5804 5806 5816 5822 5825 5817 5818 5824 5828 5827 5827
5784 5787 5787 5788 5790 5790 5791 5790 5790 5791 5791 5790 5790 5791 5792 5795 5794 5793 5793 5793 5794 5794 5794 5795 5795 5795 5796 5796 5796 5796 5796 5795 5792 5789 5789 5790 5804 5807 5803 5800 5804 5805 5812 5814 5819
5783 5784 5785 5787 5787 5788 5788 5788 5788 5788 5788 5789 5788 5789 5789 5790 5789 5789 5790 5789 5790 5790 5789 5789 5789 5787 5787 5787 5786 5786 5786 5784 5782 5777 5776 5779 5785 5787 5786 5789 5792 5794 5797 5803 5804
5781 5781 5782 5783 5785 5785 5785 5785 5785 5785 5785 5785 5785 5786 5786 5786 5786 5786 5787 5786 5785 5784 5782 5781 5780 5777 5776 5776 5776 5773 5771 5769 5766 5758 5757 5756 5765 5765 5768 5769 5777 5777 5782 5791 5799
5777 5778 5779 5779 5780 5781 5782 5783 5783 5784 5783 5783 5783 5784 5784 5785 5783 5782 5782 5780 5779 5777 5777 5775 5773 5770 5766 5763 5761 5757 5753 5749 5741 5736 5733 5728 5740 5742 5745 5749 5751 5757 5763 5772 5781
5775 5775 5775 5776 5777 5777 5779 5780 5782 5783 5782 5781 5781 5781 5782 5782 5781 5779 5777 5776 5774 5773 5770 5768 5765 5761 5758 5753 5748 5741 5734 5728 5720 5711 5707 5709 5714 5720 5722 5724 5729 5733 5737 5745 5757
5771 5771 5772 5774 5775 5775 5776 5777 5778 5780 5780 5780 5780 5780 5780 5780 5779 5776 5775 5773 5770 5767 5764 5760 5756 5751 5745 5739 5732 5725 5716 5708 5702 5697 5695 5693 5698 5705 5705 5708 5706 5711 5718 5722 5731
5770 5768 5769 5770 5773 5775 5775 5776 5776 5777 5777 5777 5778 5778 5777 5777 5774 5771 5769 5766 5763 5760 5756 5752 5747 5741 5733 5725 5718 5709 5698 5692 5691 5687 5684 5680 5683 5693 5694 5690 5689 5689 5693 5699 5712
5766 5766 5766 5767 5770 5771 5773 5774 5773 5773 5774 5775 5773 5773 5772 5771 5770 5767 5764 5761 5757 5753 5748 5745 5738 5732 5724 5715 5705 5697 5688 5681 5676 5671 5669 5669 5664 5679 5675 5668 5667 5671 5676 5690 5700
5761 5763 5763 5763 5766 5768 5770 5770 5770 5771 5771 5771 5769 5768 5766 5765 5763 5761 5758 5753 5749 5745 5742 5736 5729 5722 5714 5705 5695 5686 5677 5672 5667 5663 5659 5659 5656 5663 5660 5658 5660 5662 5669 5673 5682
5758 5760 5760 5760 5763 5765 5764 5766 5767 5768 5766 5766 5764 5762 5762 5760 5757 5754 5750 5747 5743 5737 5730 5725 5719 5710 5704 5695 5683 5674 5668 5665 5661 5659 5658 5657 5654 5654 5653 5653 5652 5651 5657 5665 5671
5754 5756 5759 5758 5758 5760 5759 5760 5762 5761 5762 5760 5757 5756 5754 5752 5750 5747 5745 5741 5737 5734 5727 5718 5711 5703 5696 5688 5676 5666 5660 5658 5658 5656 5655 5654 5651 5649 5649 5648 5644 5646 5648 5652 5656
5748 5751 5753 5754 5754 5755 5756 5756 5755 5755 5754 5753 5751 5750 5748 5746 5743 5741 5737 5734 5730 5725 5719 5712 5702 5695 5686 5677 5669 5664 5655 5651 5648 5650 5650 5650 5647 5646 5644 5642 5641 5639 5642 5644 5645
5742 5745 5747 5749 5750 5750 5752 5750 5750 5749 5748 5748 5746 5744 5742 5739 5738 5734 5732 5728 5723 5718 5713 5706 5698 5687 5677 5670 5661 5659 5651 5647 5643 5644 5642 5644 5643 5641 5640 5639 5637 5635 5636 5637 5639
5736 5739 5742 5744 5744 5745 5746 5746 5744 5744 5742 5741 5739 5738 5736 5733 5731 5727 5724 5720 5716 5711 5706 5700 5694 5685 5675 5667 5655 5648 5648 5643 5639 5638 5636 5636 5635 5633 5633 5634 5632 5634 5632 5632 5631
5731 5733 5735 5736 5738 5739 5739 5739 5739 5737 5737 5735 5734 5732 5731 5728 5725 5721 5718 5714 5709 5703 5698 5692 5687 5679 5670 5662 5655 5643 5638 5635 5635 5632 5628 5627 5628 5627 5629 5627 5626 5629 5630 5628 5629
5724 5726 5729 5729 5732 5733 5732 5732 5732 5731 5730 5729 5728 5726 5724 5721 5718 5715 5712 5708 5703 5698 5692 5686 5681 5673 5665 5656 5648 5639 5632 5628 5624 5624 5621 5619 5619 5622 5622 5620 5619 5622 5622 5623 5623
5716 5718 5721 5723 5724 5726 5725 5726 5726 5725 5724 5722 5722 5720 5718 5715 5712 5708 5705 5701 5696 5692 5686 5679 5674 5668 5663 5653 5642 5633 5626 5621 5616 5613 5614 5610 5609 5615 5614 5609 5612 5611 5611 5613 5614
5709 5712 5715 5716 5717 5719 5718 5719 5719 5718 5718 5716 5715 5713 5711 5709 5705 5701 5698 5694 5689 5685 5679 5673 5668 5661 5655 5646 5640 5633 5625 5616 5610 5606 5606 5605 5598 5606 5604 5604 5604 5605 5604 5603 5603
5702 5705 5707 5709 5710 5711 5711 5711 5711 5711 5711 5709 5708 5707 5706 5702 5697 5695 5691 5687 5683 5677 5672 5667 5661 5656 5649 5642 5635 5628 5622 5615 5611 5607 5603 5599 5594 5593 5596 5597 5597 5600 5598 5597 5596
5696 5699 5700 5701 5702 5704 5703 5704 5704 5702 5703 5701 5700 5699 5698 5694 5690 5688 5685 5681 5677 5672 5667 5661 5656 5650 5642 5637 5630 5625 5619 5615 5612 5606 5603 5598 5595 5591 5590 5590 5592 5593 5593 5592 5591
5687 5690 5691 5693 5695 5696 5696 5696 5696 5697 5696 5695 5693 5691 5690 5685 5682 5680 5677 5674 5669 5665 5660 5655 5650 5645 5638 5634 5627 5623 5617 5613 5608 5604 5602 5599 5595 5593 5591 5588 5588 5589 5587 5586 5584
Wind_Speed
12 10 9 9 8 7 6 4 5 4 3 6 11 5 4 5 5 7 8 10 10 12 14 17 21 24 21 23 25 28 28 25 26 26 24 31 37 40 43 43 38 35 34 38 34
11 11 11 9 8 7 4 1 0 2 2 4 4 4 6 8 9 7 9 12 12 14 14 14 16 20 21 22 22 24 25 24 28 30 29 31 35 37 38 43 39 38 37 36 38
9 9 10 8 7 6 4 2 3 3 3 5 6 7 9 10 11 12 12 14 14 15 16 17 19 20 21 23 24 25 25 26 27 30 32 34 38 38 40 43 41 39 38 39 36
6 7 8 9 6 6 6 6 5 5 7 9 9 10 13 14 14 15 15 16 17 18 19 20 21 22 24 25 26 27 29 28 29 31 32 29 33 37 39 42 45 42 42 42 43
5 6 9 9 10 11 10 11 11 10 8 9 10 12 12 14 15 15 15 16 16 16 17 18 19 21 22 25 27 29 31 33 34 33 35 37 34 32 30 38 42 45 46 46 45
9 9 9 9 10 11 8 7 8 8 8 8 8 7 6 6 9 11 12 15 16 17 18 19 20 22 24 27 29 32 34 37 40 40 42 44 40 38 36 39 38 35 36 44 46
6 5 6 6 6 7 9 9 8 7 6 5 5 7 8 11 12 11 11 10 10 11 12 15 18 22 24 27 30 33 36 39 44 47 50 54 49 46 51 51 48 47 42 41 43
2 3 5 6 8 10 10 10 8 7 6 6 6 6 7 7 6 5 6 10 11 12 15 17 20 23 25 28 32 35 38 42 47 53 57 58 58 58 59 60 58 57 54 48 46
3 4 6 7 10 12 13 12 10 7 4 4 4 3 2 3 5 8 8 10 13 15 18 21 25 28 31 33 35 39 43 44 48 56 60 65 64 66 67 68 66 67 64 60 53
3 7 8 8 10 12 12 9 4 3 3 4 4 3 2 4 7 9 10 13 16 18 21 24 27 30 34 37 39 42 42 47 54 55 57 64 68 71 73 73 73 72 71 69 65
3 8 6 6 8 7 6 5 5 5 4 3 4 2 5 6 8 11 13 15 17 20 23 26 28 32 35 39 43 47 49 52 54 54 53 48 60 62 67 69 72 73 73 72 73
3 5 3 4 4 4 4 5 2 2 3 5 5 6 7 8 10 13 15 17 19 22 25 29 32 35 39 42 46 51 51 52 49 44 44 44 40 39 49 54 59 63 67 68 73
4 4 2 2 2 3 5 5 5 5 6 6 8 10 11 13 14 17 18 21 23 25 28 31 35 37 42 45 48 48 49 50 46 45 43 44 40 30 34 51 60 62 64 66 69
6 4 3 3 4 5 6 8 9 9 9 10 11 12 14 15 15 18 19 23 25 28 30 33 37 40 42 46 48 44 45 45 44 42 40 37 42 30 38 47 62 67 64 62 63
9 7 6 6 7 7 9 11 12 12 12 14 13 14 17 19 21 22 24 26 27 30 32 35 39 41 45 46 45 41 38 35 29 25 25 12 29 22 34 43 44 59 70 66 65
13 10 9 7 8 10 10 12 13 14 15 15 16 16 18 20 23 25 26 29 30 32 37 39 42 45 47 45 44 43 38 29 18 16 14 11 11 13 15 21 39 40 50 68 65
15 13 11 9 10 12 12 13 14 15 16 16 17 18 19 20 22 24 25 26 29 30 33 39 41 45 46 42 38 41 36 28 17 17 19 16 15 16 13 9 25 29 37 39 49
19 16 14 13 12 13 14 13 14 15 18 18 20 20 20 22 23 25 26 26 29 32 34 36 40 44 46 47 42 35 33 29 27 20 24 21 22 16 16 17 15 25 26 31 32
22 19 18 16 16 16 17 18 17 19 21 20 23 23 22 22 24 26 28 29 31 31 33 36 35 39 43 43 45 33 30 27 28 23 22 21 21 23 12 17 14 4 21 18 35
24 22 20 20 20 20 21 21 21 22 22 22 24 25 27 25 26 28 30 30 31 33 34 36 34 36 38 36 40 39 24 26 28 27 23 24 28 28 34 28 14 16 5 4 5
26 24 23 23 23 22 22 23 23 23 23 23 25 26 27 27 27 28 30 31 32 32 35 37 37 37 38 37 33 36 30 26 25 30 32 28 29 31 31 34 33 32 31 18 13
28 26 24 24 24 24 24 23 24 23 23 24 25 27 27 26 27 28 30 32 33 32 34 37 37 37 38 38 35 33 28 27 29 33 35 36 30 31 32 33 39 35 34 36 28
29 27 26 25 24 24 24 23 24 24 24 25 26 28 27 27 27 27 29 30 32 33 33 36 38 40 35 36 37 35 33 31 31 33 34 42 37 34 36 40 37 35 36 37 37
29 27 27 26 25 25 24 23 24 25 24 26 26 28 28 27 28 29 28 30 31 32 35 36 36 38 39 37 34 30 29 28 31 33 33 30 37 32 34 31 29 30 32 34 35
29 28 27 26 26 25 25 25 25 26 25 26 27 28 28 28 30 30 28 30 31 31 32 35 35 35 38 36 34 33 26 18 18 15 19 17 17 15 23 24 29 26 28 30 30
28 27 28 27 27 26 27 26 27 27 27 27 27 27 27 28 31 30 30 30 29 30 31 33 34 32 37 34 34 28 21 9 6 9 16 17 16 12 8 19 19 18 18 20 23
30 29 29 29 28 27 28 27 29 29 27 27 28 28 27 30 32 31 30 30 30 30 31 33 34 32 34 31 32 28 22 11 9 5 10 9 8 11 11 7 14 18 21 22 22
Wind_Direction
46 35 42 18 4 19 32 55 85 93 116 133 196 191 188 213 233 224 221 223 226 235 227 230 234 244 252 250 246 245 250 246 240 233 212 226 232 235 242 244 245 246 240 247 246
40 26 43 42 17 12 35 1 270 153 168 208 203 199 222 235 248 243 242 248 243 244 250 243 239 238 240 248 253 251 249 249 248 243 226 229 237 243 246 250 247 245 248 242 248
32 17 30 26 26 4 6 300 251 239 237 235 228 238 245 248 249 246 242 243 247 253 260 263 261 257 253 253 252 252 254 253 255 252 246 230 239 241 247 250 248 250 247 250 249
13 355 6 358 348 327 328 319 296 268 268 261 257 254 247 251 258 256 256 257 258 260 261 262 262 262 264 262 262 261 262 260 257 257 256 250 239 244 253 256 254 257 253 252 254
32 7 8 353 329 309 298 287 282 277 270 271 276 270 267 267 267 267 269 271 270 269 267 266 264 263 261 261 262 264 263 264 261 255 253 252 245 238 243 250 252 257 262 261 260
57 49 40 24 7 353 339 314 290 280 273 261 258 259 265 266 269 271 271 273 272 271 267 271 272 272 269 267 267 268 269 267 267 263 256 249 243 242 237 240 243 234 243 253 258
69 42 26 358 330 323 319 315 306 298 297 297 287 275 277 276 276 280 282 286 288 292 295 291 287 284 283 281 281 278 276 274 272 270 267 262 257 242 237 241 242 238 225 228 239
46 347 340 330 318 313 310 303 298 289 274 268 268 270 267 272 274 282 295 293 294 291 294 295 296 295 293 290 289 284 280 278 277 271 268 265 262 258 248 240 240 244 243 229 228
48 347 322 317 312 312 310 300 293 290 286 286 280 270 270 295 297 297 292 293 299 306 310 310 308 306 304 299 295 290 289 288 290 273 265 259 258 256 254 253 246 241 240 240 232
5 329 322 316 313 311 307 304 310 310 303 306 309 306 307 318 307 314 314 313 314 312 309 307 306 306 306 306 307 305 299 302 295 282 270 262 256 250 248 247 248 246 242 238 236
342 345 334 321 318 299 295 277 295 297 302 313 325 332 313 307 299 307 312 307 307 312 314 313 312 312 312 313 314 319 314 309 298 284 280 270 263 254 247 245 244 244 243 239 233
327 349 353 344 321 295 264 258 256 249 282 285 282 293 297 296 303 302 301 310 311 310 314 318 318 319 321 324 325 323 314 305 296 288 281 276 272 263 249 245 246 246 245 240 236
288 330 308 319 285 260 252 247 258 262 268 270 287 289 300 306 313 312 313 312 315 319 320 321 322 325 328 330 330 323 312 304 300 288 278 277 270 257 249 241 239 237 237 238 238
264 281 239 216 213 231 248 264 262 266 261 269 281 288 297 302 302 309 314 314 316 322 324 326 327 332 332 332 331 322 309 306 299 291 286 275 270 253 237 235 236 235 230 234 233
243 256 237 225 222 238 259 268 272 273 269 277 277 292 300 306 310 313 316 319 323 323 326 329 330 334 337 334 330 323 311 306 303 296 293 274 267 242 236 241 239 237 234 227 227
243 247 244 228 251 252 258 271 283 281 281 281 288 298 304 309 310 315 319 318 324 329 330 330 333 337 340 335 332 324 321 313 295 292 275 294 275 257 243 262 249 245 238 236 229
238 244 250 247 247 261 263 272 281 285 287 288 290 295 299 303 307 311 315 319 321 325 330 332 334 337 340 337 329 323 322 316 290 272 265 287 271 292 268 320 263 255 248 242 235
235 239 242 246 250 259 265 269 277 285 288 291 293 293 294 299 304 306 307 313 320 326 330 334 339 339 339 339 338 325 311 302 302 285 253 262 269 264 276 238 243 231 239 246 248
232 237 241 246 250 257 264 269 273 278 282 285 289 291 291 294 298 304 311 318 321 327 331 333 343 340 336 339 334 331 306 293 296 293 283 257 262 261 268 261 260 215 220 238 254
233 237 242 250 252 259 266 270 272 277 280 282 282 290 293 295 299 305 313 317 321 324 327 332 343 340 337 341 330 329 316 288 285 283 273 263 263 262 267 267 259 281 262 240 266
235 238 241 247 254 258 263 268 274 279 283 282 285 287 292 297 301 304 310 316 320 326 328 330 339 342 341 340 337 322 317 298 272 268 269 263 257 263 265 269 274 273 276 281 268
236 238 243 248 254 260 264 270 276 280 284 284 283 286 290 294 299 304 310 316 320 324 327 329 335 342 342 340 343 332 317 300 282 269 264 262 258 261 271 266 274 276 276 265 272
236 237 242 248 255 260 265 272 279 282 285 285 286 286 290 295 300 305 309 313 317 321 324 329 335 337 342 341 343 338 328 316 295 281 269 266 265 268 271 275 279 283 282 276 272
237 241 246 250 256 261 266 274 280 283 285 287 288 289 291 295 300 302 306 311 314 319 323 326 332 336 340 339 344 337 327 316 302 303 306 297 281 269 269 272 273 273 282 284 281
237 241 247 254 258 263 269 274 277 282 283 285 287 289 294 295 296 300 306 310 311 317 321 323 330 336 337 337 341 340 337 328 326 332 353 0 338 281 258 249 257 275 272 273 272
239 245 250 255 259 265 270 275 280 283 284 285 288 292 295 294 293 300 303 306 310 314 317 320 326 337 333 336 336 339 332 335 15 20 2 346 359 346 300 252 256 257 277 275 262
240 245 250 255 263 268 273 279 283 286 286 287 289 291 293 289 295 298 302 306 307 312 315 318 323 332 331 337 330 329 327 290 275 314 319 329 332 329 331 281 256 288 293 286 292